Year,Month,Day,Hour,Minute,Value (Times are PST for windgust in km/hr)
2016,07,08,00,00,22.50
2016,07,08,00,01,22.50
2016,07,08,00,02,32.20
2016,07,08,00,03,27.40
2016,07,08,00,04,25.70
2016,07,08,00,05,22.50
2016,07,08,00,06,25.70
2016,07,08,00,07,29.00
2016,07,08,00,08,30.60
2016,07,08,00,09,25.70
2016,07,08,00,10,19.30
2016,07,08,00,11,22.50
2016,07,08,00,12,29.00
2016,07,08,00,13,22.50
2016,07,08,00,14,24.20
2016,07,08,00,15,27.40
2016,07,08,00,16,32.20
2016,07,08,00,17,24.20
2016,07,08,00,18,33.80
2016,07,08,00,19,29.00
2016,07,08,00,20,19.30
2016,07,08,00,21,27.40
2016,07,08,00,22,27.40
2016,07,08,00,23,24.20
2016,07,08,00,24,22.50
2016,07,08,00,25,20.90
2016,07,08,00,26,22.50
2016,07,08,00,27,22.50
2016,07,08,00,28,22.50
2016,07,08,00,29,19.30
2016,07,08,00,30,30.60
2016,07,08,00,31,20.90
2016,07,08,00,32,24.20
2016,07,08,00,33,27.40
2016,07,08,00,34,20.90
2016,07,08,00,35,29.00
2016,07,08,00,36,25.70
2016,07,08,00,37,20.90
2016,07,08,00,38,20.90
2016,07,08,00,39,24.20
2016,07,08,00,40,25.70
2016,07,08,00,41,22.50
2016,07,08,00,42,14.50
2016,07,08,00,43,22.50
2016,07,08,00,44,17.70
2016,07,08,00,45,17.70
2016,07,08,00,46,19.30
2016,07,08,00,47,19.30
2016,07,08,00,48,17.70
2016,07,08,00,49,24.20
2016,07,08,00,50,22.50
2016,07,08,00,51,25.70
2016,07,08,00,52,22.50
2016,07,08,00,53,19.30
2016,07,08,00,54,17.70
2016,07,08,00,55,14.50
2016,07,08,00,56,19.30
2016,07,08,00,57,17.70
2016,07,08,00,58,17.70
2016,07,08,00,59,20.90
2016,07,08,01,00,20.90
2016,07,08,01,01,20.90
2016,07,08,01,02,16.10
2016,07,08,01,03,14.50
2016,07,08,01,04,19.30
2016,07,08,01,05,14.50
2016,07,08,01,06,9.60
2016,07,08,01,07,8.10
2016,07,08,01,08,11.30
2016,07,08,01,09,11.30
2016,07,08,01,10,8.10
2016,07,08,01,11,16.10
2016,07,08,01,12,16.10
2016,07,08,01,13,11.30
2016,07,08,01,14,11.30
2016,07,08,01,15,11.30
2016,07,08,01,16,11.30
2016,07,08,01,17,11.30
2016,07,08,01,18,12.90
2016,07,08,01,19,11.30
2016,07,08,01,20,9.60
2016,07,08,01,21,16.10
2016,07,08,01,22,11.30
2016,07,08,01,23,11.30
2016,07,08,01,24,9.60
2016,07,08,01,25,9.60
2016,07,08,01,26,6.40
2016,07,08,01,27,8.10
2016,07,08,01,28,8.10
2016,07,08,01,29,6.40
2016,07,08,01,30,6.40
2016,07,08,01,31,6.40
2016,07,08,01,32,9.60
2016,07,08,01,33,8.10
2016,07,08,01,34,8.10
2016,07,08,01,35,9.60
2016,07,08,01,36,8.10
2016,07,08,01,37,8.10
2016,07,08,01,38,8.10
2016,07,08,01,39,8.10
2016,07,08,01,40,3.20
2016,07,08,01,41,11.30
2016,07,08,01,42,8.10
2016,07,08,01,43,6.40
2016,07,08,01,44,8.10
2016,07,08,01,45,6.40
2016,07,08,01,46,11.30
2016,07,08,01,47,6.40
2016,07,08,01,48,9.60
2016,07,08,01,49,8.10
2016,07,08,01,50,3.20
2016,07,08,01,51,3.20
2016,07,08,01,52,6.40
2016,07,08,01,53,6.40
2016,07,08,01,54,9.60
2016,07,08,01,55,8.10
2016,07,08,01,56,6.40
2016,07,08,01,57,6.40
2016,07,08,01,58,4.80
2016,07,08,01,59,4.80
2016,07,08,02,00,11.30
2016,07,08,02,01,4.80
2016,07,08,02,02,8.10
2016,07,08,02,03,6.40
2016,07,08,02,04,8.10
2016,07,08,02,05,8.10
2016,07,08,02,06,8.10
2016,07,08,02,07,6.40
2016,07,08,02,08,6.40
2016,07,08,02,09,6.40
2016,07,08,02,10,9.60
2016,07,08,02,11,8.10
2016,07,08,02,12,9.60
2016,07,08,02,13,8.10
2016,07,08,02,14,11.30
2016,07,08,02,15,9.60
2016,07,08,02,16,8.10
2016,07,08,02,17,8.10
2016,07,08,02,18,9.60
2016,07,08,02,19,11.30
2016,07,08,02,20,9.60
2016,07,08,02,21,11.30
2016,07,08,02,22,6.40
2016,07,08,02,23,3.20
2016,07,08,02,24,3.20
2016,07,08,02,25,6.40
2016,07,08,02,26,4.80
2016,07,08,02,27,4.80
2016,07,08,02,28,8.10
2016,07,08,02,29,8.10
2016,07,08,02,30,4.80
2016,07,08,02,31,4.80
2016,07,08,02,32,3.20
2016,07,08,02,33,3.20
2016,07,08,02,34,6.40
2016,07,08,02,35,6.40
2016,07,08,02,36,4.80
2016,07,08,02,37,8.10
2016,07,08,02,38,4.80
2016,07,08,02,39,3.20
2016,07,08,02,40,3.20
2016,07,08,02,41,3.20
2016,07,08,02,42,1.60
2016,07,08,02,43,1.60
2016,07,08,02,44,1.60
2016,07,08,02,46,1.60
2016,07,08,02,47,1.60
2016,07,08,02,48,3.20
2016,07,08,02,49,3.20
2016,07,08,02,50,3.20
2016,07,08,02,51,3.20
2016,07,08,02,52,3.20
2016,07,08,02,53,3.20
2016,07,08,02,54,3.20
2016,07,08,02,55,1.60
2016,07,08,02,56,1.60
2016,07,08,02,57,1.60
2016,07,08,02,58,1.60
2016,07,08,02,59,1.60
2016,07,08,03,01,1.60
2016,07,08,03,02,1.60
2016,07,08,03,03,1.60
2016,07,08,03,04,3.20
2016,07,08,03,05,3.20
2016,07,08,03,06,1.60
2016,07,08,03,07,3.20
2016,07,08,03,08,3.20
2016,07,08,03,09,1.60
2016,07,08,03,10,3.20
2016,07,08,03,11,1.60
2016,07,08,03,12,3.20
2016,07,08,03,13,1.60
2016,07,08,03,14,1.60
2016,07,08,03,15,1.60
2016,07,08,03,16,1.60
2016,07,08,03,17,3.20
2016,07,08,03,18,1.60
2016,07,08,03,19,1.60
2016,07,08,03,20,3.20
2016,07,08,03,21,3.20
2016,07,08,03,22,3.20
2016,07,08,03,23,6.40
2016,07,08,03,24,6.40
2016,07,08,03,25,8.10
2016,07,08,03,26,8.10
2016,07,08,03,27,8.10
2016,07,08,03,28,4.80
2016,07,08,03,29,3.20
2016,07,08,03,30,6.40
2016,07,08,03,31,3.20
2016,07,08,03,32,6.40
2016,07,08,03,33,8.10
2016,07,08,03,34,8.10
2016,07,08,03,35,6.40
2016,07,08,03,36,6.40
2016,07,08,03,37,3.20
2016,07,08,03,38,3.20
2016,07,08,03,39,3.20
2016,07,08,03,40,4.80
2016,07,08,03,41,6.40
2016,07,08,03,42,8.10
2016,07,08,03,43,4.80
2016,07,08,03,44,4.80
2016,07,08,03,45,3.20
2016,07,08,03,46,3.20
2016,07,08,03,47,4.80
2016,07,08,03,48,8.10
2016,07,08,03,49,6.40
2016,07,08,03,50,4.80
2016,07,08,03,51,4.80
2016,07,08,03,52,6.40
2016,07,08,03,53,6.40
2016,07,08,03,54,4.80
2016,07,08,03,55,6.40
2016,07,08,03,56,3.20
2016,07,08,03,57,3.20
2016,07,08,03,58,3.20
2016,07,08,03,59,3.20
2016,07,08,04,00,1.60
2016,07,08,04,01,1.60
2016,07,08,04,02,1.60
2016,07,08,04,03,3.20
2016,07,08,04,04,1.60
2016,07,08,04,05,1.60
2016,07,08,04,06,1.60
2016,07,08,04,07,1.60
2016,07,08,04,08,3.20
2016,07,08,04,09,1.60
2016,07,08,04,10,1.60
2016,07,08,04,11,1.60
2016,07,08,04,12,3.20
2016,07,08,04,13,1.60
2016,07,08,04,14,1.60
2016,07,08,04,15,1.60
2016,07,08,04,16,1.60
2016,07,08,04,17,1.60
2016,07,08,04,18,1.60
2016,07,08,04,19,1.60
2016,07,08,04,20,1.60
2016,07,08,04,21,1.60
2016,07,08,04,22,1.60
2016,07,08,04,23,1.60
2016,07,08,04,24,1.60
2016,07,08,04,25,1.60
2016,07,08,04,26,1.60
2016,07,08,04,27,3.20
2016,07,08,04,28,3.20
2016,07,08,04,29,4.80
2016,07,08,04,30,9.60
2016,07,08,04,31,6.40
2016,07,08,04,32,8.10
2016,07,08,04,33,8.10
2016,07,08,04,34,8.10
2016,07,08,04,35,9.60
2016,07,08,04,36,8.10
2016,07,08,04,37,8.10
2016,07,08,04,38,9.60
2016,07,08,04,39,8.10
2016,07,08,04,40,8.10
2016,07,08,04,41,9.60
2016,07,08,04,42,8.10
2016,07,08,04,43,6.40
2016,07,08,04,44,4.80
2016,07,08,04,45,6.40
2016,07,08,04,46,6.40
2016,07,08,04,47,4.80
2016,07,08,04,48,6.40
2016,07,08,04,49,6.40
2016,07,08,04,50,8.10
2016,07,08,04,51,3.20
2016,07,08,04,52,3.20
2016,07,08,04,53,4.80
2016,07,08,04,54,4.80
2016,07,08,04,55,4.80
2016,07,08,04,56,3.20
2016,07,08,04,57,4.80
2016,07,08,04,58,6.40
2016,07,08,04,59,3.20
2016,07,08,05,00,1.60
2016,07,08,05,01,1.60
2016,07,08,05,02,1.60
2016,07,08,05,03,1.60
2016,07,08,05,04,1.60
2016,07,08,05,05,1.60
2016,07,08,05,06,1.60
2016,07,08,05,07,1.60
2016,07,08,05,08,1.60
2016,07,08,05,09,1.60
2016,07,08,05,10,1.60
2016,07,08,05,11,3.20
2016,07,08,05,12,3.20
2016,07,08,05,13,3.20
2016,07,08,05,14,3.20
2016,07,08,05,15,9.60
2016,07,08,05,16,9.60
2016,07,08,05,17,8.10
2016,07,08,05,18,9.60
2016,07,08,05,19,9.60
2016,07,08,05,20,16.10
2016,07,08,05,21,8.10
2016,07,08,05,22,6.40
2016,07,08,05,23,8.10
2016,07,08,05,24,8.10
2016,07,08,05,25,4.80
2016,07,08,05,26,8.10
2016,07,08,05,27,9.60
2016,07,08,05,28,9.60
2016,07,08,05,29,14.50
2016,07,08,05,30,8.10
2016,07,08,05,31,8.10
2016,07,08,05,32,9.60
2016,07,08,05,33,8.10
2016,07,08,05,34,9.60
2016,07,08,05,35,9.60
2016,07,08,05,36,6.40
2016,07,08,05,37,9.60
2016,07,08,05,38,9.60
2016,07,08,05,39,6.40
2016,07,08,05,40,8.10
2016,07,08,05,41,8.10
2016,07,08,05,42,6.40
2016,07,08,05,43,4.80
2016,07,08,05,44,4.80
2016,07,08,05,45,4.80
2016,07,08,05,46,6.40
2016,07,08,05,47,8.10
2016,07,08,05,48,8.10
2016,07,08,05,49,8.10
2016,07,08,05,50,6.40
2016,07,08,05,51,4.80
2016,07,08,05,52,4.80
2016,07,08,05,53,4.80
2016,07,08,05,54,6.40
2016,07,08,05,55,6.40
2016,07,08,05,56,8.10
2016,07,08,05,57,8.10
2016,07,08,05,58,8.10
2016,07,08,05,59,9.60
2016,07,08,06,00,8.10
2016,07,08,06,01,9.60
2016,07,08,06,02,9.60
2016,07,08,06,03,11.30
2016,07,08,06,04,9.60
2016,07,08,06,05,9.60
2016,07,08,06,06,6.40
2016,07,08,06,07,6.40
2016,07,08,06,08,9.60
2016,07,08,06,09,8.10
2016,07,08,06,10,9.60
2016,07,08,06,11,9.60
2016,07,08,06,12,6.40
2016,07,08,06,13,6.40
2016,07,08,06,14,8.10
2016,07,08,06,15,8.10
2016,07,08,06,16,9.60
2016,07,08,06,17,14.50
2016,07,08,06,18,9.60
2016,07,08,06,19,9.60
2016,07,08,06,20,9.60
2016,07,08,06,21,12.90
2016,07,08,06,22,9.60
2016,07,08,06,23,11.30
2016,07,08,06,24,14.50
2016,07,08,06,25,8.10
2016,07,08,06,26,6.40
2016,07,08,06,27,8.10
2016,07,08,06,28,11.30
2016,07,08,06,29,9.60
2016,07,08,06,30,9.60
2016,07,08,06,31,8.10
2016,07,08,06,32,6.40
2016,07,08,06,33,14.50
2016,07,08,06,34,11.30
2016,07,08,06,35,11.30
2016,07,08,06,36,8.10
2016,07,08,06,37,9.60
2016,07,08,06,38,9.60
2016,07,08,06,39,9.60
2016,07,08,06,40,8.10
2016,07,08,06,41,8.10
2016,07,08,06,42,8.10
2016,07,08,06,43,3.20
2016,07,08,06,44,8.10
2016,07,08,06,45,4.80
2016,07,08,06,46,8.10
2016,07,08,06,47,9.60
2016,07,08,06,48,8.10
2016,07,08,06,49,16.10
2016,07,08,06,50,11.30
2016,07,08,06,51,11.30
2016,07,08,06,52,9.60
2016,07,08,06,53,9.60
2016,07,08,06,54,14.50
2016,07,08,06,55,14.50
2016,07,08,06,56,12.90
2016,07,08,06,57,8.10
2016,07,08,06,58,8.10
2016,07,08,06,59,9.60
2016,07,08,07,00,14.50
2016,07,08,07,01,8.10
2016,07,08,07,02,8.10
2016,07,08,07,03,9.60
2016,07,08,07,04,11.30
2016,07,08,07,05,11.30
2016,07,08,07,06,16.10
2016,07,08,07,07,9.60
2016,07,08,07,08,3.20
2016,07,08,07,09,8.10
2016,07,08,07,10,6.40
2016,07,08,07,11,6.40
2016,07,08,07,12,6.40
2016,07,08,07,13,8.10
2016,07,08,07,14,4.80
2016,07,08,07,15,4.80
2016,07,08,07,16,4.80
2016,07,08,07,17,8.10
2016,07,08,07,18,8.10
2016,07,08,07,19,8.10
2016,07,08,07,20,4.80
2016,07,08,07,21,6.40
2016,07,08,07,22,8.10
2016,07,08,07,23,4.80
2016,07,08,07,24,4.80
2016,07,08,07,25,4.80
2016,07,08,07,26,6.40
2016,07,08,07,27,6.40
2016,07,08,07,28,9.60
2016,07,08,07,29,17.70
2016,07,08,07,30,14.50
2016,07,08,07,31,16.10
2016,07,08,07,32,16.10
2016,07,08,07,33,11.30
2016,07,08,07,34,11.30
2016,07,08,07,35,11.30
2016,07,08,07,36,11.30
2016,07,08,07,37,11.30
2016,07,08,07,38,11.30
2016,07,08,07,39,11.30
2016,07,08,07,40,11.30
2016,07,08,07,41,8.10
2016,07,08,07,42,8.10
2016,07,08,07,43,9.60
2016,07,08,07,44,8.10
2016,07,08,07,45,6.40
2016,07,08,07,46,17.70
2016,07,08,07,47,17.70
2016,07,08,07,48,12.90
2016,07,08,07,49,11.30
2016,07,08,07,50,11.30
2016,07,08,07,51,9.60
2016,07,08,07,52,14.50
2016,07,08,07,53,16.10
2016,07,08,07,54,11.30
2016,07,08,07,55,19.30
2016,07,08,07,56,19.30
2016,07,08,07,57,17.70
2016,07,08,07,58,16.10
2016,07,08,07,59,19.30
2016,07,08,08,00,16.10
2016,07,08,08,01,9.60
2016,07,08,08,02,12.90
2016,07,08,08,03,11.30
2016,07,08,08,04,11.30
2016,07,08,08,05,11.30
2016,07,08,08,06,11.30
2016,07,08,08,07,11.30
2016,07,08,08,08,8.10
2016,07,08,08,09,9.60
2016,07,08,08,10,11.30
2016,07,08,08,11,11.30
2016,07,08,08,12,9.60
2016,07,08,08,13,9.60
2016,07,08,08,14,14.50
2016,07,08,08,15,8.10
2016,07,08,08,16,17.70
2016,07,08,08,17,14.50
2016,07,08,08,18,11.30
2016,07,08,08,19,14.50
2016,07,08,08,20,14.50
2016,07,08,08,21,14.50
2016,07,08,08,22,14.50
2016,07,08,08,23,11.30
2016,07,08,08,24,16.10
2016,07,08,08,25,14.50
2016,07,08,08,26,20.90
2016,07,08,08,27,14.50
2016,07,08,08,28,14.50
2016,07,08,08,29,19.30
2016,07,08,08,30,22.50
2016,07,08,08,31,17.70
2016,07,08,08,32,17.70
2016,07,08,08,33,16.10
2016,07,08,08,34,16.10
2016,07,08,08,35,16.10
2016,07,08,08,36,17.70
2016,07,08,08,37,24.20
2016,07,08,08,38,22.50
2016,07,08,08,39,24.20
2016,07,08,08,40,20.90
2016,07,08,08,41,22.50
2016,07,08,08,42,27.40
2016,07,08,08,43,25.70
2016,07,08,08,44,22.50
2016,07,08,08,45,24.20
2016,07,08,08,46,22.50
2016,07,08,08,47,22.50
2016,07,08,08,48,24.20
2016,07,08,08,49,20.90
2016,07,08,08,50,25.70
2016,07,08,08,51,24.20
2016,07,08,08,52,20.90
2016,07,08,08,53,20.90
2016,07,08,08,54,20.90
2016,07,08,08,55,22.50
2016,07,08,08,56,29.00
2016,07,08,08,57,17.70
2016,07,08,08,58,20.90
2016,07,08,08,59,24.20
2016,07,08,09,00,27.40
2016,07,08,09,01,27.40
2016,07,08,09,02,24.20
2016,07,08,09,03,20.90
2016,07,08,09,04,25.70
2016,07,08,09,05,27.40
2016,07,08,09,06,24.20
2016,07,08,09,07,25.70
2016,07,08,09,08,25.70
2016,07,08,09,09,22.50
2016,07,08,09,10,19.30
2016,07,08,09,11,19.30
2016,07,08,09,12,25.70
2016,07,08,09,13,25.70
2016,07,08,09,14,22.50
2016,07,08,09,15,16.10
2016,07,08,09,16,29.00
2016,07,08,09,17,25.70
2016,07,08,09,18,22.50
2016,07,08,09,19,24.20
2016,07,08,09,20,25.70
2016,07,08,09,21,24.20
2016,07,08,09,22,20.90
2016,07,08,09,23,20.90
2016,07,08,09,24,20.90
2016,07,08,09,25,27.40
2016,07,08,09,26,25.70
2016,07,08,09,27,25.70
2016,07,08,09,28,25.70
2016,07,08,09,29,25.70
2016,07,08,09,30,25.70
2016,07,08,09,31,25.70
2016,07,08,09,32,25.70
2016,07,08,09,33,22.50
2016,07,08,09,34,22.50
2016,07,08,09,35,22.50
2016,07,08,09,36,25.70
2016,07,08,09,37,20.90
2016,07,08,09,38,22.50
2016,07,08,09,39,20.90
2016,07,08,09,40,22.50
2016,07,08,09,41,27.40
2016,07,08,09,42,22.50
2016,07,08,09,43,27.40
2016,07,08,09,44,25.70
2016,07,08,09,45,24.20
2016,07,08,09,46,24.20
2016,07,08,09,47,27.40
2016,07,08,09,48,24.20
2016,07,08,09,49,24.20
2016,07,08,09,50,25.70
2016,07,08,09,51,30.60
2016,07,08,09,52,24.20
2016,07,08,09,53,25.70
2016,07,08,09,54,22.50
2016,07,08,09,55,24.20
2016,07,08,09,56,27.40
2016,07,08,09,57,25.70
2016,07,08,09,58,27.40
2016,07,08,09,59,27.40
2016,07,08,10,00,25.70
2016,07,08,10,01,29.00
2016,07,08,10,02,27.40
2016,07,08,10,03,25.70
2016,07,08,10,04,29.00
2016,07,08,10,05,32.20
2016,07,08,10,06,37.00
2016,07,08,10,07,29.00
2016,07,08,10,08,27.40
2016,07,08,10,09,29.00
2016,07,08,10,10,25.70
2016,07,08,10,11,30.60
2016,07,08,10,12,32.20
2016,07,08,10,13,29.00
2016,07,08,10,14,29.00
2016,07,08,10,15,32.20
2016,07,08,10,16,35.40
2016,07,08,10,17,30.60
2016,07,08,10,18,35.40
2016,07,08,10,19,35.40
2016,07,08,10,20,30.60
2016,07,08,10,21,29.00
2016,07,08,10,22,22.50
2016,07,08,10,23,27.40
2016,07,08,10,24,33.80
2016,07,08,10,25,30.60
2016,07,08,10,26,41.80
2016,07,08,10,27,29.00
2016,07,08,10,28,32.20
2016,07,08,10,29,27.40
2016,07,08,10,30,30.60
2016,07,08,10,31,27.40
2016,07,08,10,32,32.20
2016,07,08,10,33,33.80
2016,07,08,10,34,32.20
2016,07,08,10,35,27.40
2016,07,08,10,36,30.60
2016,07,08,10,37,27.40
2016,07,08,10,38,29.00
2016,07,08,10,39,20.90
2016,07,08,10,40,32.20
2016,07,08,10,41,32.20
2016,07,08,10,42,35.40
2016,07,08,10,43,33.80
2016,07,08,10,44,35.40
2016,07,08,10,45,37.00
2016,07,08,10,46,32.20
2016,07,08,10,47,38.60
2016,07,08,10,48,32.20
2016,07,08,10,49,35.40
2016,07,08,10,50,27.40
2016,07,08,10,51,32.20
2016,07,08,10,52,35.40
2016,07,08,10,53,30.60
2016,07,08,10,54,30.60
2016,07,08,10,55,32.20
2016,07,08,10,56,35.40
2016,07,08,10,57,30.60
2016,07,08,10,58,27.40
2016,07,08,10,59,24.20
2016,07,08,11,00,24.20
2016,07,08,11,01,24.20
2016,07,08,11,02,30.60
2016,07,08,11,03,32.20
2016,07,08,11,04,33.80
2016,07,08,11,05,27.40
2016,07,08,11,06,29.00
2016,07,08,11,07,29.00
2016,07,08,11,08,19.30
2016,07,08,11,09,27.40
2016,07,08,11,10,30.60
2016,07,08,11,11,29.00
2016,07,08,11,12,30.60
2016,07,08,11,13,22.50
2016,07,08,11,14,30.60
2016,07,08,11,15,25.70
2016,07,08,11,16,22.50
2016,07,08,11,17,24.20
2016,07,08,11,18,27.40
2016,07,08,11,19,25.70
2016,07,08,11,20,25.70
2016,07,08,11,21,20.90
2016,07,08,11,22,25.70
2016,07,08,11,23,27.40
2016,07,08,11,24,17.70
2016,07,08,11,25,24.20
2016,07,08,11,26,24.20
2016,07,08,11,27,17.70
2016,07,08,11,28,25.70
2016,07,08,11,29,29.00
2016,07,08,11,30,29.00
2016,07,08,11,31,29.00
2016,07,08,11,32,20.90
2016,07,08,11,33,22.50
2016,07,08,11,34,19.30
2016,07,08,11,35,27.40
2016,07,08,11,36,24.20
2016,07,08,11,37,24.20
2016,07,08,11,38,30.60
2016,07,08,11,39,27.40
2016,07,08,11,40,9.60
2016,07,08,11,41,19.30
2016,07,08,11,42,30.60
2016,07,08,11,43,25.70
2016,07,08,11,44,20.90
2016,07,08,11,45,19.30
2016,07,08,11,46,17.70
2016,07,08,11,47,25.70
2016,07,08,11,48,19.30
2016,07,08,11,49,17.70
2016,07,08,11,50,24.20
2016,07,08,11,51,25.70
2016,07,08,11,52,25.70
2016,07,08,11,53,25.70
2016,07,08,11,54,25.70
2016,07,08,11,55,27.40
2016,07,08,11,56,22.50
2016,07,08,11,57,19.30
2016,07,08,11,58,17.70
2016,07,08,11,59,20.90
2016,07,08,12,00,17.70
2016,07,08,12,01,16.10
2016,07,08,12,02,16.10
2016,07,08,12,03,14.50
2016,07,08,12,04,22.50
2016,07,08,12,05,17.70
2016,07,08,12,06,16.10
2016,07,08,12,07,14.50
2016,07,08,12,08,3.20
2016,07,08,12,09,8.10
2016,07,08,12,10,14.50
2016,07,08,12,11,12.90
2016,07,08,12,12,14.50
2016,07,08,12,13,11.30
2016,07,08,12,14,14.50
2016,07,08,12,15,17.70
2016,07,08,12,16,11.30
2016,07,08,12,17,11.30
2016,07,08,12,18,22.50
2016,07,08,12,19,17.70
2016,07,08,12,20,14.50
2016,07,08,12,21,14.50
2016,07,08,12,22,11.30
2016,07,08,12,23,6.40
2016,07,08,12,24,8.10
2016,07,08,12,25,3.20
2016,07,08,12,26,1.60
2016,07,08,12,27,1.60
2016,07,08,12,28,3.20
2016,07,08,12,29,3.20
2016,07,08,12,30,6.40
2016,07,08,12,31,3.20
2016,07,08,12,32,3.20
2016,07,08,12,33,3.20
2016,07,08,12,34,1.60
2016,07,08,12,35,1.60
2016,07,08,12,36,1.60
2016,07,08,12,37,3.20
2016,07,08,12,38,3.20
2016,07,08,12,39,4.80
2016,07,08,12,40,4.80
2016,07,08,12,41,3.20
2016,07,08,12,42,3.20
2016,07,08,12,43,6.40
2016,07,08,12,44,4.80
2016,07,08,12,45,4.80
2016,07,08,12,46,4.80
2016,07,08,12,47,3.20
2016,07,08,12,48,4.80
2016,07,08,12,49,4.80
2016,07,08,12,50,4.80
2016,07,08,12,51,4.80
2016,07,08,12,52,3.20
2016,07,08,12,53,3.20
2016,07,08,12,54,6.40
2016,07,08,12,55,4.80
2016,07,08,12,56,6.40
2016,07,08,12,57,3.20
2016,07,08,12,58,1.60
2016,07,08,12,59,3.20
2016,07,08,13,00,1.60
2016,07,08,13,01,1.60
2016,07,08,13,02,3.20
2016,07,08,13,03,1.60
2016,07,08,13,04,1.60
2016,07,08,13,05,1.60
2016,07,08,13,06,1.60
2016,07,08,13,07,1.60
2016,07,08,13,08,1.60
2016,07,08,13,09,3.20
2016,07,08,13,10,1.60
2016,07,08,13,11,3.20
2016,07,08,13,12,3.20
2016,07,08,13,13,3.20
2016,07,08,13,14,3.20
2016,07,08,13,15,3.20
2016,07,08,13,16,6.40
2016,07,08,13,17,11.30
2016,07,08,13,18,6.40
2016,07,08,13,19,4.80
2016,07,08,13,20,3.20
2016,07,08,13,21,3.20
2016,07,08,13,22,3.20
2016,07,08,13,23,4.80
2016,07,08,13,24,4.80
2016,07,08,13,25,6.40
2016,07,08,13,26,9.60
2016,07,08,13,27,8.10
2016,07,08,13,28,6.40
2016,07,08,13,29,8.10
2016,07,08,13,30,6.40
2016,07,08,13,31,6.40
2016,07,08,13,32,8.10
2016,07,08,13,33,3.20
2016,07,08,13,34,6.40
2016,07,08,13,35,3.20
2016,07,08,13,36,4.80
2016,07,08,13,37,3.20
2016,07,08,13,38,4.80
2016,07,08,13,39,6.40
2016,07,08,13,40,4.80
2016,07,08,13,41,4.80
2016,07,08,13,42,4.80
2016,07,08,13,43,12.90
2016,07,08,13,44,8.10
2016,07,08,13,45,4.80
2016,07,08,13,46,4.80
2016,07,08,13,47,6.40
2016,07,08,13,48,11.30
2016,07,08,13,49,19.30
2016,07,08,13,50,17.70
2016,07,08,13,51,17.70
2016,07,08,13,52,20.90
2016,07,08,13,53,20.90
2016,07,08,13,54,16.10
2016,07,08,13,55,17.70
2016,07,08,13,56,12.90
2016,07,08,13,57,4.80
2016,07,08,13,58,14.50
2016,07,08,13,59,16.10
2016,07,08,14,00,17.70
2016,07,08,14,01,20.90
2016,07,08,14,02,19.30
2016,07,08,14,03,19.30
2016,07,08,14,04,14.50
2016,07,08,14,05,17.70
2016,07,08,14,06,20.90
2016,07,08,14,07,22.50
2016,07,08,14,08,17.70
2016,07,08,14,09,6.40
2016,07,08,14,10,6.40
2016,07,08,14,11,20.90
2016,07,08,14,12,17.70
2016,07,08,14,13,20.90
2016,07,08,14,14,20.90
2016,07,08,14,15,24.20
2016,07,08,14,16,22.50
2016,07,08,14,17,19.30
2016,07,08,14,18,20.90
2016,07,08,14,19,22.50
2016,07,08,14,20,12.90
2016,07,08,14,21,20.90
2016,07,08,14,22,17.70
2016,07,08,14,23,14.50
2016,07,08,14,24,20.90
2016,07,08,14,25,19.30
2016,07,08,14,26,11.30
2016,07,08,14,27,20.90
2016,07,08,14,28,9.60
2016,07,08,14,29,14.50
2016,07,08,14,30,16.10
2016,07,08,14,31,11.30
2016,07,08,14,32,19.30
2016,07,08,14,33,16.10
2016,07,08,14,34,11.30
2016,07,08,14,35,19.30
2016,07,08,14,36,24.20
2016,07,08,14,37,9.60
2016,07,08,14,38,11.30
2016,07,08,14,39,9.60
2016,07,08,14,40,8.10
2016,07,08,14,41,6.40
2016,07,08,14,42,11.30
2016,07,08,14,43,11.30
2016,07,08,14,44,17.70
2016,07,08,14,45,22.50
2016,07,08,14,46,16.10
2016,07,08,14,47,17.70
2016,07,08,14,48,20.90
2016,07,08,14,49,11.30
2016,07,08,14,50,22.50
2016,07,08,14,51,20.90
2016,07,08,14,52,19.30
2016,07,08,14,53,19.30
2016,07,08,14,54,24.20
2016,07,08,14,55,25.70
2016,07,08,14,56,19.30
2016,07,08,14,57,20.90
2016,07,08,14,58,25.70
2016,07,08,14,59,24.20
2016,07,08,15,00,25.70
2016,07,08,15,01,19.30
2016,07,08,15,02,20.90
2016,07,08,15,03,25.70
2016,07,08,15,04,19.30
2016,07,08,15,05,22.50
2016,07,08,15,06,27.40
2016,07,08,15,07,29.00
2016,07,08,15,08,27.40
2016,07,08,15,09,30.60
2016,07,08,15,10,25.70
2016,07,08,15,11,25.70
2016,07,08,15,12,29.00
2016,07,08,15,13,27.40
2016,07,08,15,14,25.70
2016,07,08,15,15,24.20
2016,07,08,15,16,24.20
2016,07,08,15,17,24.20
2016,07,08,15,18,22.50
2016,07,08,15,19,22.50
2016,07,08,15,20,22.50
2016,07,08,15,21,19.30
2016,07,08,15,22,25.70
2016,07,08,15,23,24.20
2016,07,08,15,24,20.90
2016,07,08,15,25,17.70
2016,07,08,15,26,19.30
2016,07,08,15,27,22.50
2016,07,08,15,28,20.90
2016,07,08,15,29,16.10
2016,07,08,15,30,19.30
2016,07,08,15,31,14.50
2016,07,08,15,32,19.30
2016,07,08,15,33,11.30
2016,07,08,15,34,8.10
2016,07,08,15,35,14.50
2016,07,08,15,36,22.50
2016,07,08,15,37,17.70
2016,07,08,15,38,8.10
2016,07,08,15,39,16.10
2016,07,08,15,40,6.40
2016,07,08,15,41,9.60
2016,07,08,15,42,8.10
2016,07,08,15,43,11.30
2016,07,08,15,44,8.10
2016,07,08,15,45,6.40
2016,07,08,15,46,11.30
2016,07,08,15,47,9.60
2016,07,08,15,48,8.10
2016,07,08,15,49,4.80
2016,07,08,15,50,12.90
2016,07,08,15,51,9.60
2016,07,08,15,52,11.30
2016,07,08,15,53,4.80
2016,07,08,15,54,4.80
2016,07,08,15,55,4.80
2016,07,08,15,56,4.80
2016,07,08,15,57,4.80
2016,07,08,15,58,14.50
2016,07,08,15,59,6.40
2016,07,08,16,00,9.60
2016,07,08,16,01,17.70
2016,07,08,16,02,17.70
2016,07,08,16,03,17.70
2016,07,08,16,04,6.40
2016,07,08,16,05,14.50
2016,07,08,16,06,11.30
2016,07,08,16,07,6.40
2016,07,08,16,08,8.10
2016,07,08,16,09,9.60
2016,07,08,16,10,8.10
2016,07,08,16,11,9.60
2016,07,08,16,12,6.40
2016,07,08,16,13,19.30
2016,07,08,16,14,9.60
2016,07,08,16,15,17.70
2016,07,08,16,16,14.50
2016,07,08,16,17,9.60
2016,07,08,16,18,24.20
2016,07,08,16,19,9.60
2016,07,08,16,20,9.60
2016,07,08,16,21,9.60
2016,07,08,16,22,9.60
2016,07,08,16,23,11.30
2016,07,08,16,24,9.60
2016,07,08,16,25,9.60
2016,07,08,16,26,22.50
2016,07,08,16,27,11.30
2016,07,08,16,28,22.50
2016,07,08,16,29,24.20
2016,07,08,16,30,11.30
2016,07,08,16,31,9.60
2016,07,08,16,32,8.10
2016,07,08,16,33,11.30
2016,07,08,16,34,17.70
2016,07,08,16,35,14.50
2016,07,08,16,36,11.30
2016,07,08,16,37,17.70
2016,07,08,16,38,9.60
2016,07,08,16,39,17.70
2016,07,08,16,40,4.80
2016,07,08,16,41,8.10
2016,07,08,16,42,11.30
2016,07,08,16,43,9.60
2016,07,08,16,44,4.80
2016,07,08,16,45,3.20
2016,07,08,16,46,4.80
2016,07,08,16,47,4.80
2016,07,08,16,48,8.10
2016,07,08,16,49,8.10
2016,07,08,16,50,6.40
2016,07,08,16,51,3.20
2016,07,08,16,52,3.20
2016,07,08,16,53,1.60
2016,07,08,16,54,1.60
2016,07,08,16,55,8.10
2016,07,08,16,56,11.30
2016,07,08,16,57,6.40
2016,07,08,16,58,8.10
2016,07,08,16,59,8.10
2016,07,08,17,00,9.60
2016,07,08,17,01,3.20
2016,07,08,17,02,3.20
2016,07,08,17,03,6.40
2016,07,08,17,04,6.40
2016,07,08,17,05,6.40
2016,07,08,17,06,3.20
2016,07,08,17,07,9.60
2016,07,08,17,08,9.60
2016,07,08,17,09,11.30
2016,07,08,17,10,6.40
2016,07,08,17,11,9.60
2016,07,08,17,12,6.40
2016,07,08,17,13,6.40
2016,07,08,17,14,6.40
2016,07,08,17,15,6.40
2016,07,08,17,16,11.30
2016,07,08,17,17,8.10
2016,07,08,17,18,6.40
2016,07,08,17,19,3.20
2016,07,08,17,20,9.60
2016,07,08,17,21,8.10
2016,07,08,17,22,9.60
2016,07,08,17,23,14.50
2016,07,08,17,24,19.30
2016,07,08,17,25,17.70
2016,07,08,17,26,8.10
2016,07,08,17,27,8.10
2016,07,08,17,28,3.20
2016,07,08,17,29,3.20
2016,07,08,17,30,9.60
2016,07,08,17,31,16.10
2016,07,08,17,32,4.80
2016,07,08,17,33,8.10
2016,07,08,17,34,4.80
2016,07,08,17,35,4.80
2016,07,08,17,36,9.60
2016,07,08,17,37,4.80
2016,07,08,17,38,9.60
2016,07,08,17,39,6.40
2016,07,08,17,40,11.30
2016,07,08,17,41,3.20
2016,07,08,17,42,9.60
2016,07,08,17,43,9.60
2016,07,08,17,44,9.60